NOZ173 ENZV-ENBR

Flight info

Callsign NOZ173
Flight time 0h 23m
Altitude 16000
Route ALUVA
Aircraft B738/M-SDE2E3FGHIRWXY/LB1

Departure

Time 2026-04-17 12:51
Airport Stavanger Airport, Sola (ENZV)

Arrival

Time 2026-04-17 13:14
Airport Bergen Airport, Flesland (ENBR)
Time Latitude Longitude Altitude Speed Heading
2026-04-17 12:40 58.88127 5.63026 24 ft 0 kts 315°
2026-04-17 12:45 58.88116 5.63047 29 ft 3 kts 315°
2026-04-17 12:46 58.88104 5.63071 29 ft 2 kts 315°
2026-04-17 12:46 58.88099 5.63079 28 ft 0 kts 315°
2026-04-17 12:47 58.88105 5.63074 27 ft 3 kts 333°
2026-04-17 12:47 58.88143 5.63116 27 ft 8 kts 54°
2026-04-17 12:47 58.88185 5.63212 26 ft 11 kts 42°
2026-04-17 12:47 58.88255 5.63292 29 ft 13 kts 24°
2026-04-17 12:48 58.88357 5.63362 30 ft 18 kts 13°
2026-04-17 12:48 58.88510 5.63407 29 ft 25 kts
2026-04-17 12:48 58.88700 5.63426 31 ft 29 kts
2026-04-17 12:48 58.88895 5.63410 29 ft 27 kts 357°
2026-04-17 12:49 58.89079 5.63401 25 ft 26 kts 360°
2026-04-17 12:49 58.89235 5.63399 24 ft 18 kts 360°
2026-04-17 12:49 58.89339 5.63480 19 ft 18 kts 68°
2026-04-17 12:49 58.89336 5.63687 18 ft 12 kts 112°
2026-04-17 12:50 58.89290 5.63740 20 ft 8 kts 173°
2026-04-17 12:50 58.89102 5.63750 21 ft 56 kts 179°
2026-04-17 12:50 58.88487 5.63760 29 ft 119 kts 179°
2026-04-17 12:50 58.87491 5.63758 122 ft 161 kts 179°
2026-04-17 12:51 58.86353 5.63596 769 ft 170 kts 190°
2026-04-17 12:51 58.85292 5.62321 1408 ft 195 kts 221°
2026-04-17 12:51 58.84688 5.59859 2181 ft 212 kts 250°
2026-04-17 12:51 58.84711 5.56997 3122 ft 217 kts 276°
2026-04-17 12:52 58.85289 5.54194 3726 ft 236 kts 296°
2026-04-17 12:52 58.86341 5.51604 4230 ft 252 kts 312°
2026-04-17 12:52 58.87706 5.49498 4935 ft 260 kts 324°
2026-04-17 12:52 58.89415 5.47818 5098 ft 293 kts 339°
2026-04-17 12:53 58.91356 5.46537 5899 ft 294 kts 341°
2026-04-17 12:53 58.93287 5.45245 6809 ft 292 kts 338°
2026-04-17 12:53 58.95190 5.43849 7670 ft 295 kts 337°
2026-04-17 12:53 58.97125 5.42400 8426 ft 301 kts 336°
2026-04-17 12:54 58.99085 5.40929 9305 ft 304 kts 336°
2026-04-17 12:54 59.01071 5.39443 10110 ft 308 kts 336°
2026-04-17 12:54 59.03101 5.37927 10670 ft 321 kts 336°
2026-04-17 12:54 59.05267 5.36309 10863 ft 346 kts 336°
2026-04-17 12:55 59.07591 5.34576 11062 ft 369 kts 336°
2026-04-17 12:55 59.10055 5.32743 11237 ft 390 kts 336°
2026-04-17 12:55 59.12648 5.30816 11524 ft 405 kts 337°
2026-04-17 12:55 59.15307 5.28843 12114 ft 411 kts 337°
2026-04-17 12:56 59.17982 5.26858 12860 ft 413 kts 337°
2026-04-17 12:56 59.20674 5.24858 13634 ft 414 kts 337°
2026-04-17 12:56 59.23380 5.22840 14229 ft 420 kts 337°
2026-04-17 12:56 59.26132 5.20781 14724 ft 426 kts 337°
2026-04-17 12:57 59.28906 5.18703 15292 ft 428 kts 336°
2026-04-17 12:57 59.31689 5.16617 15855 ft 428 kts 336°
2026-04-17 12:57 59.34479 5.14520 16220 ft 434 kts 336°
2026-04-17 12:57 59.37305 5.12390 16203 ft 436 kts 336°
2026-04-17 12:58 59.40138 5.10253 16213 ft 437 kts 336°
2026-04-17 12:58 59.42972 5.08111 16212 ft 436 kts 336°
2026-04-17 12:58 59.45810 5.05962 16213 ft 437 kts 336°
2026-04-17 12:58 59.48644 5.03813 16207 ft 437 kts 336°
2026-04-17 12:59 59.51473 5.01662 16210 ft 437 kts 336°
2026-04-17 12:59 59.54311 4.99501 16200 ft 437 kts 336°
2026-04-17 12:59 59.57152 4.97333 16199 ft 438 kts 336°
2026-04-17 12:59 59.59993 4.95162 16200 ft 438 kts 336°
2026-04-17 13:00 59.62856 4.93083 16186 ft 440 kts 341°
2026-04-17 13:00 59.65895 4.92162 16204 ft 444 kts 355°
2026-04-17 13:00 59.68979 4.91869 16191 ft 444 kts 355°
2026-04-17 13:00 59.72068 4.91524 16187 ft 445 kts 354°
2026-04-17 13:01 59.75152 4.91067 16182 ft 444 kts 353°
2026-04-17 13:01 59.78236 4.90547 16197 ft 444 kts 353°
2026-04-17 13:01 59.81301 4.89822 16200 ft 443 kts 350°
2026-04-17 13:01 59.84354 4.88935 16183 ft 443 kts 349°
2026-04-17 13:02 59.87401 4.88002 16185 ft 443 kts 349°
2026-04-17 13:02 59.90454 4.87400 16078 ft 436 kts 358°
2026-04-17 13:02 59.93471 4.87904 15421 ft 431 kts
2026-04-17 13:02 59.96390 4.88715 14777 ft 417 kts
2026-04-17 13:03 59.99235 4.89491 14075 ft 409 kts
2026-04-17 13:03 60.01993 4.90216 13312 ft 401 kts
2026-04-17 13:03 60.04734 4.90914 12550 ft 394 kts
2026-04-17 13:03 60.07428 4.91586 11804 ft 387 kts
2026-04-17 13:04 60.10081 4.92240 11069 ft 381 kts
2026-04-17 13:04 60.12694 4.92881 10357 ft 376 kts
2026-04-17 13:04 60.15273 4.93514 9607 ft 371 kts
2026-04-17 13:04 60.17818 4.94139 8840 ft 366 kts
2026-04-17 13:05 60.20330 4.94758 8087 ft 361 kts
2026-04-17 13:05 60.22808 4.95370 7356 ft 357 kts
2026-04-17 13:05 60.25257 4.95976 6639 ft 352 kts
2026-04-17 13:05 60.27675 4.96575 5877 ft 348 kts
2026-04-17 13:06 60.30059 4.97165 5227 ft 342 kts
2026-04-17 13:06 60.32400 4.97746 4577 ft 336 kts
2026-04-17 13:06 60.34702 4.98320 3933 ft 331 kts
2026-04-17 13:06 60.36971 4.98885 3353 ft 326 kts
2026-04-17 13:07 60.39205 4.99352 2775 ft 320 kts
2026-04-17 13:07 60.41408 4.99799 2217 ft 316 kts
2026-04-17 13:07 60.43579 5.00236 1729 ft 310 kts
2026-04-17 13:07 60.45594 5.00632 2302 ft 272 kts
2026-04-17 13:08 60.47492 5.01086 2828 ft 273 kts 16°
2026-04-17 13:08 60.49157 5.02748 2994 ft 267 kts 45°
2026-04-17 13:08 60.50211 5.05707 3001 ft 256 kts 76°
2026-04-17 13:08 60.50405 5.09157 2976 ft 238 kts 105°
2026-04-17 13:09 60.49768 5.12022 2987 ft 214 kts 133°
2026-04-17 13:09 60.48655 5.13883 2981 ft 203 kts 151°
2026-04-17 13:09 60.47466 5.15213 2997 ft 194 kts 153°
2026-04-17 13:09 60.46227 5.16115 2995 ft 180 kts 167°
2026-04-17 13:10 60.45040 5.16548 2993 ft 167 kts 169°
2026-04-17 13:10 60.43923 5.16916 2927 ft 166 kts 169°
2026-04-17 13:10 60.42797 5.17291 2707 ft 160 kts 169°
2026-04-17 13:10 60.41694 5.17658 2479 ft 161 kts 169°
2026-04-17 13:11 60.40598 5.18027 2277 ft 159 kts 169°
2026-04-17 13:11 60.39494 5.18403 2053 ft 164 kts 170°
2026-04-17 13:11 60.38365 5.18779 1829 ft 165 kts 171°
2026-04-17 13:11 60.37255 5.19151 1585 ft 157 kts 170°
2026-04-17 13:12 60.36194 5.19510 1390 ft 154 kts 171°
2026-04-17 13:12 60.34207 5.20176 980 ft 140 kts 170°
2026-04-17 13:12 60.33258 5.20497 763 ft 136 kts 169°
2026-04-17 13:13 60.32333 5.20794 592 ft 133 kts 168°
2026-04-17 13:13 60.31433 5.21122 426 ft 131 kts 167°
2026-04-17 13:13 60.30522 5.21433 248 ft 135 kts 168°
2026-04-17 13:13 60.29624 5.21731 173 ft 119 kts 171°
2026-04-17 13:14 60.29018 5.21924 173 ft 57 kts 171°
2026-04-17 13:14 60.28768 5.22003 174 ft 18 kts 170°
2026-04-17 13:14 60.28675 5.22067 174 ft 9 kts 130°
2026-04-17 13:14 60.28667 5.22190 174 ft 11 kts 82°
2026-04-17 13:15 60.28680 5.22353 173 ft 12 kts 81°
2026-04-17 13:15 60.28669 5.22518 173 ft 13 kts 98°
2026-04-17 13:15 60.28671 5.22697 173 ft 12 kts 108°
2026-04-17 13:15 60.28650 5.22840 173 ft 11 kts 83°
2026-04-17 13:16 60.28655 5.22903 173 ft 0 kts 81°
2026-04-17 13:16 60.28656 5.22920 173 ft 3 kts 81°
2026-04-17 13:16 60.28657 5.22923 173 ft 0 kts 81°